Terug naar catalogus

COSMOS 2553

ActiefMilitairLEO
NORAD 51511·PAYLOAD·🇷🇺 Russia

Gelanceerd Feb 5, 2022 vanaf Plesetsk Cosmodrome

Loading…

Volgende Passages (komende 24 uur)

TLE

VersSource: Space-Track

Epoch: Sep 14, 2026, 22:04 UTC

1 51511U 22011A   26257.91960586 -.00000042  00000-0 -18868-3 0  9997
2 51511  67.0900 233.5238 0004126 271.3082  88.7389 11.32845060190608

Volg COSMOS 2553 in realtime met AllMySat

Download on the App Store